Weather Roundup
Issued by NWS Chicago, IL

Home | Current Version | Previous Version | Text Only | Print | Product List | Glossary Off
Versions: 1 2 3 4 5 6 7 8 9 10 11 12 13 14 15 16 17 18 19 20 21 22 23 24 25 26 27 28 29 30 31 32 33 34 35 36 37 38 39 40 41 42 43 44 45 46 47 48 49 50

000
NZUS59 KLOT 172008
HRRLOT

CHICAGO AREA WEATHER ROUNDUP
NATIONAL WEATHER SERVICE CHICAGO/ROMEOVILLE IL
300 PM CDT THU AUG 17 2017

NOTE: "FAIR" INDICATES FEW OR NO CLOUDS BELOW 12,000 FEET WITH NO
SIGNIFICANT WEATHER AND/OR OBSTRUCTIONS TO VISIBILITY.

* THESE STATIONS ARE NOT UNDER NWS QUALITY CONTROL. THEY ALSO MAY NOT
  REPORT WEATHER SUCH AS PRECIPITATION OR FOG.

ILZ005-006-012>014-019>023-172100-
NORTHEAST ILLINOIS

CITY           SKY/WX    TMP DP  RH WIND       PRES   REMARKS
OHARE          PTSUNNY   82  65  56 W22G29    29.72S HX  84
MIDWAY         PTSUNNY   82  66  58 SW22G28   29.73F HX  84
AURORA         CLOUDY    78  66  66 SW13G31   29.75F HX  80
LANSING*       PTSUNNY   80  67  63 SW14      29.75S HX  83
JOLIET*        PTSUNNY   82  69  64 W15G21    29.76R HX  85
WAUKEGAN       MOSUNNY   79  65  62 SW14G23   29.69F HX  81
DUPAGE AIRPORT MOSUNNY   79  67  66 SW20G35   29.74S HX  81
WHEELING       MOSUNNY   81  67  62 W15G25    29.73S HX  83
MORRIS*        CLOUDY    80  68  65 W16G23    29.75S HX  83
LEWIS AIRPORT* CLOUDY    79  66  64 W18G25    29.75S HX  81
NORTHERLY ISL    N/A     81  63  54 SW10        N/A  HX  82
$$

WIZ051-052-058>065-066-070>072-172100-
SOUTHEAST WISCONSIN

CITY           SKY/WX    TMP DP  RH WIND       PRES   REMARKS
MILWAUKEE      MOSUNNY   81  64  56 SW22G30   29.66F HX  82
KENOSHA*       SUNNY     79  64  60 W16G31    29.69S HX  81
RACINE*        MOSUNNY   79  65  62 W14G22    29.69S HX  81
WAUKESHA       PTSUNNY   75  63  64 SW13G24   29.68F
WEST BEND      PTSUNNY   77  63  61 SW20G25   29.63F
$$

INZ001>003-010>013-019-020-172100-
NORTHWEST INDIANA

CITY           SKY/WX    TMP DP  RH WIND       PRES   REMARKS
GARY*          PTSUNNY   82  66  57 SW17G29   29.74F HX  85
MICHIGAN CITY* NOT AVBL
RENSSELAER*    NOT AVBL
VALPARAISO     CLOUDY    82  68  62 SW22      29.77S HX  85
$$

LMZ740>746-172100-
SOUTHERN LAKE MICHIGAN

STATION/POSITION TIME  SKY/WX   TEMP WIND        PRES    VSBY
                                AIR  DIR/SP/G
                 (UTC)          (F)  (DEG/KT/KT) (MB)    (MI)
HARRISON CRIB    1940            81  230/ 20/ 24   N/A
BURNHAM HARBOR   NOT AVBL
CALUMET HARBOR   1948            81  210/ 13/ 22 1006.2F
BURNS HARBOR     1940            80  230/ 15/ 25 1007.8S
MICHIGAN CITY    1940            77  220/ 16/ 18   N/A
$$

ABBREVIATIONS USED IN REMARKS
   TC - TEMPERATURE IN CELSIUS
  WCI - WIND CHILL INDEX
   HX - HEAT INDEX
  VSB - VISIBILITY
$$




USA.gov is the U.S. government's official web portal to all federal, state and local government web resources and services.